Regional Weather Roundup
Issued by NWS Kansas City/Pleasant Hill, MO

Home | Current Version | Previous Version | Graphics & Text | Print | Product List | Glossary Off
Versions: 1 2 3 4 5 6 7 8 9 10 11 12 13 14 15 16 17 18 19 20 21 22 23 24 25 26 27

000
ASUS43 KEAX 231610
RWREAX

WEATHER ROUNDUP FOR EASTERN KANSAS AND NORTHWEST MISSOURI
NATIONAL WEATHER SERVICE KANSAS CITY/PLEASANT HILL MO
1100 AM CDT SAT JUL 23 2016

KSZ040-057-103>105-MOZ028-029-037-043-231700-
...KANSAS CITY METROPOLITAN AREA...

CITY           SKY/WX    TMP DP  RH WIND       PRES   REMARKS
K.C. INTL      CLOUDY    87  75  67 S14       29.94F HX  96
K.C. DOWNTOWN  CLOUDY    92  71  50 SW13      29.92F HX  98
LEES SUMMIT    MOSUNNY   89  71  55 S13       29.97S HX  95
OLATHE - IXD   PTSUNNY   87  73  62 S10       29.97F HX  94
OLATHE - OJC   CLOUDY    84  73  69 S8        29.97F HX  90
LAWRENCE       CLOUDY    87  74  64 S8        29.93F HX  95

$$

MOZ001>008-011>017-020>025-030>033-038>040-044>046-053-054-231700-
...NORTHERN AND CENTRAL MISSOURI...

CITY           SKY/WX    TMP DP  RH WIND       PRES   REMARKS
ST. JOSEPH     CLOUDY    88  74  63 S12       29.90F HX  96
MOSBY          CLOUDY    88  73  62 S7        29.93F HX  96
WHITEMAN AFB   MOSUNNY   91  77  63 SW10      29.95F HX 103
CLINTON        SUNNY     90  77  66 CALM      29.98F HX 102
SEDALIA        SUNNY     91  77  63 SW9       30.00S HX 104
WARSAW         NOT AVBL
CHILLICOTHE      N/A     90  77  65 S9        29.93F HX 103
KIRKSVILLE     CLOUDY    89  77  67 S8        29.95F HX 101

$$

MOZ041-047>049-056>058-063>065-088>090-097-231700-
...EASTERN AND SOUTHERN MISSOURI...

CITY           SKY/WX    TMP DP  RH WIND       PRES   REMARKS
ST. LOUIS INTL MOSUNNY   89  69  51 SE3       30.00F HX  93
SPIRIT OF STL  MOSUNNY   89  74  60 CALM      29.97F HX  98
COLUMBIA       SUNNY     90  78  68 SW9       29.99S HX 104
JEFFERSON CITY SUNNY     91  76  61 W10       29.97S HX 103
ROLLA          SUNNY     89  77  67 SW6       30.00S HX 101
OSAGE BEACH    SUNNY     91  78  65 W9        30.00S HX 106
SPRINGFIELD    SUNNY     92  72  51 SW8       30.01F HX  99
BRANSON        MOSUNNY   91  75  59 CALM      30.04S HX 102
JOPLIN         SUNNY     91  74  57 SW9       30.00F HX 100
WEST PLAINS    SUNNY     90  75  61 VRB5      30.04F HX 100

$$

IAZ060-094-KSZ022-034>040-054-083-096-NEZ052-066-093-231700-
...KANSAS...SOUTHEAST NEBRASKA AND IOWA...

CITY           SKY/WX    TMP DP  RH WIND       PRES   REMARKS
TOPEKA         CLOUDY    88  72  58 S8        29.92F HX  94
MANHATTAN      PTSUNNY   89  69  51 S14       29.89F HX  93
EMPORIA        PTSUNNY   90  71  53 S10       29.95F HX  96
CHANUTE        SUNNY     90  73  57 S9        29.97F HX  98
WICHITA        PTSUNNY   93  67  42 S16       29.93F HX  96
OMAHA          CLOUDY    83  72  69 S9        29.82F
LINCOLN        MOSUNNY   84  71  65 S9        29.83F
FALLS CITY     CLOUDY    83  74  74 S12       29.86F
LAMONI         MOSUNNY   87  77  72 S10       29.90F HX  99
DES MOINES     PTSUNNY   90  75  61 S12       29.86F HX 100

$$





USA.gov is the U.S. government's official web portal to all federal, state and local government web resources and services.